Time,TemperatureF,DewpointF,PressureIn,WindDirection,WindDirectionDegrees,WindSpeedMPH,WindSpeedGustMPH,Humidity,HourlyPrecipIn,Conditions,Clouds,dailyrainin,SoftwareType,DateUTC
2013-06-23 00:01:00,70.1,62.2,30.11,WSW,249,2.0,7.0,76,0.00,,,0.00,Wunderground v.1.15,2013-06-23 04:01:00,
2013-06-23 00:02:00,70.1,62.2,30.11,ESE,107,2.0,7.0,76,0.00,,,0.00,Wunderground v.1.15,2013-06-23 04:02:00,
2013-06-23 00:03:00,70.1,62.2,30.11,South,183,2.0,7.0,76,0.00,,,0.00,Wunderground v.1.15,2013-06-23 04:03:00,
2013-06-23 00:07:00,70.2,62.3,30.11,SSW,207,3.0,7.0,76,0.00,,,0.00,Wunderground v.1.15,2013-06-23 04:07:00,
2013-06-23 00:12:00,70.3,62.4,30.11,SSW,208,3.0,7.0,76,0.00,,,0.00,Wunderground v.1.15,2013-06-23 04:12:00,
2013-06-23 00:14:00,70.3,62.4,30.11,NE,51,3.0,7.0,76,0.00,,,0.00,Wunderground v.1.15,2013-06-23 04:14:00,
2013-06-23 00:19:00,70.3,62.4,30.11,SW,225,2.0,7.0,76,0.00,,,0.00,Wunderground v.1.15,2013-06-23 04:19:00,
2013-06-23 00:24:00,70.3,62.4,30.11,WNW,296,2.0,7.0,76,0.00,,,0.00,Wunderground v.1.15,2013-06-23 04:24:00,
2013-06-23 00:29:00,70.3,62.4,30.11,SSE,160,2.0,7.0,76,0.00,,,0.00,Wunderground v.1.15,2013-06-23 04:29:00,
2013-06-23 00:34:00,70.4,62.5,30.12,SSW,194,2.0,7.0,76,0.00,,,0.00,Wunderground v.1.15,2013-06-23 04:34:00,
2013-06-23 00:39:00,70.5,62.9,30.12,SSE,162,2.0,7.0,77,0.00,,,0.00,Wunderground v.1.15,2013-06-23 04:39:00,
2013-06-23 00:44:00,70.4,62.8,30.12,WNW,300,2.0,7.0,77,0.00,,,0.00,Wunderground v.1.15,2013-06-23 04:44:00,
2013-06-23 00:50:00,70.4,62.8,30.11,SW,214,2.0,7.0,77,0.00,,,0.00,Wunderground v.1.15,2013-06-23 04:50:00,
2013-06-23 00:55:00,70.3,63.1,30.11,SSW,210,2.0,7.0,78,0.00,,,0.00,Wunderground v.1.15,2013-06-23 04:55:00,
2013-06-23 01:00:00,70.2,63.0,30.11,SW,224,1.0,7.0,78,0.00,,,0.00,Wunderground v.1.15,2013-06-23 05:00:00,
2013-06-23 01:05:00,70.1,63.3,30.11,WSW,253,1.0,7.0,79,0.00,,,0.00,Wunderground v.1.15,2013-06-23 05:05:00,
2013-06-23 01:10:00,69.9,63.4,30.11,SW,235,1.0,7.0,80,0.00,,,0.00,Wunderground v.1.15,2013-06-23 05:10:00,
2013-06-23 01:16:00,69.7,63.3,30.11,NNE,20,2.0,7.0,80,0.00,,,0.00,Wunderground v.1.15,2013-06-23 05:16:00,
2013-06-23 01:21:00,69.7,63.6,30.10,West,262,1.0,7.0,81,0.00,,,0.00,Wunderground v.1.15,2013-06-23 05:21:00,
2013-06-23 01:26:00,69.7,63.6,30.10,SW,218,2.0,7.0,81,0.00,,,0.00,Wunderground v.1.15,2013-06-23 05:26:00,
2013-06-23 01:31:00,69.6,63.5,30.10,ESE,111,1.0,7.0,81,0.00,,,0.00,Wunderground v.1.15,2013-06-23 05:31:00,
2013-06-23 01:36:00,69.4,63.7,30.10,WNW,287,1.0,7.0,82,0.00,,,0.00,Wunderground v.1.15,2013-06-23 05:36:00,
2013-06-23 01:42:00,69.3,63.6,30.10,SW,221,1.0,7.0,82,0.00,,,0.00,Wunderground v.1.15,2013-06-23 05:42:00,
2013-06-23 01:47:00,69.4,63.7,30.10,SW,217,2.0,7.0,82,0.00,,,0.00,Wunderground v.1.15,2013-06-23 05:47:00,
2013-06-23 01:52:00,69.5,63.8,30.10,West,274,2.0,7.0,82,0.00,,,0.00,Wunderground v.1.15,2013-06-23 05:52:00,
2013-06-23 01:57:00,69.4,63.7,30.10,SSW,212,1.0,7.0,82,0.00,,,0.00,Wunderground v.1.15,2013-06-23 05:57:00,
2013-06-23 02:01:00,69.4,63.7,30.10,SSW,203,1.0,7.0,82,0.00,,,0.00,Wunderground v.1.15,2013-06-23 06:01:00,
2013-06-23 02:06:00,69.3,63.6,30.10,WNW,302,1.0,7.0,82,0.00,,,0.00,Wunderground v.1.15,2013-06-23 06:06:00,
2013-06-23 02:12:00,69.2,63.8,30.10,SW,235,1.0,7.0,83,0.00,,,0.00,Wunderground v.1.15,2013-06-23 06:12:00,
2013-06-23 02:17:00,69.2,63.8,30.09,South,183,2.0,7.0,83,0.00,,,0.00,Wunderground v.1.15,2013-06-23 06:17:00,
2013-06-23 02:22:00,69.0,63.6,30.09,WNW,284,2.0,7.0,83,0.00,,,0.00,Wunderground v.1.15,2013-06-23 06:22:00,
2013-06-23 02:27:00,68.9,63.5,30.09,WNW,289,1.0,7.0,83,0.00,,,0.00,Wunderground v.1.15,2013-06-23 06:27:00,
2013-06-23 02:32:00,68.7,63.7,30.09,SW,219,1.0,7.0,84,0.00,,,0.00,Wunderground v.1.15,2013-06-23 06:32:00,
2013-06-23 02:37:00,68.7,63.7,30.09,WSW,243,2.0,7.0,84,0.00,,,0.00,Wunderground v.1.15,2013-06-23 06:37:00,
2013-06-23 02:43:00,68.6,63.6,30.09,WSW,245,2.0,7.0,84,0.00,,,0.00,Wunderground v.1.15,2013-06-23 06:43:00,
2013-06-23 02:48:00,68.6,63.6,30.09,SSW,204,2.0,7.0,84,0.00,,,0.00,Wunderground v.1.15,2013-06-23 06:48:00,
2013-06-23 02:53:00,68.5,63.5,30.09,SW,229,1.0,7.0,84,0.00,,,0.00,Wunderground v.1.15,2013-06-23 06:53:00,
2013-06-23 02:58:00,68.4,63.7,30.09,WNW,285,1.0,7.0,85,0.00,,,0.00,Wunderground v.1.15,2013-06-23 06:58:00,
2013-06-23 03:03:00,68.4,63.7,30.09,SSW,204,2.0,7.0,85,0.00,,,0.00,Wunderground v.1.15,2013-06-23 07:03:00,
2013-06-23 03:09:00,68.4,63.7,30.08,West,265,2.0,7.0,85,0.00,,,0.00,Wunderground v.1.15,2013-06-23 07:09:00,
2013-06-23 03:14:00,68.4,63.7,30.08,WSW,240,2.0,7.0,85,0.00,,,0.00,Wunderground v.1.15,2013-06-23 07:14:00,
2013-06-23 03:19:00,68.3,63.6,30.08,WSW,243,1.0,7.0,85,0.00,,,0.00,Wunderground v.1.15,2013-06-23 07:19:00,
2013-06-23 03:24:00,68.2,63.5,30.08,SW,214,1.0,7.0,85,0.00,,,0.00,Wunderground v.1.15,2013-06-23 07:24:00,
2013-06-23 03:29:00,68.2,63.5,30.08,SW,222,1.0,7.0,85,0.00,,,0.00,Wunderground v.1.15,2013-06-23 07:29:00,
2013-06-23 03:35:00,67.9,63.6,30.08,WNW,298,1.0,7.0,86,0.00,,,0.00,Wunderground v.1.15,2013-06-23 07:35:00,
2013-06-23 03:40:00,67.9,63.6,30.08,WSW,250,1.0,1.0,86,0.00,,,0.00,Wunderground v.1.15,2013-06-23 07:40:00,
2013-06-23 03:45:00,67.8,63.5,30.08,South,179,1.0,7.0,86,0.00,,,0.00,Wunderground v.1.15,2013-06-23 07:45:00,
2013-06-23 03:50:00,67.8,63.5,30.08,WNW,284,1.0,7.0,86,0.00,,,0.00,Wunderground v.1.15,2013-06-23 07:50:00,
2013-06-23 03:55:00,67.8,63.5,30.09,SSE,149,1.0,7.0,86,0.00,,,0.00,Wunderground v.1.15,2013-06-23 07:55:00,
2013-06-23 04:01:00,67.7,63.4,30.08,SSW,196,1.0,7.0,86,0.00,,,0.00,Wunderground v.1.15,2013-06-23 08:01:00,
2013-06-23 04:06:00,67.8,63.5,30.08,SW,225,1.0,7.0,86,0.00,,,0.00,Wunderground v.1.15,2013-06-23 08:06:00,
2013-06-23 04:11:00,67.9,63.6,30.08,SSW,203,2.0,7.0,86,0.00,,,0.00,Wunderground v.1.15,2013-06-23 08:11:00,
2013-06-23 04:16:00,68.0,63.7,30.08,West,266,2.0,7.0,86,0.00,,,0.00,Wunderground v.1.15,2013-06-23 08:16:00,
2013-06-23 04:21:00,67.9,63.6,30.08,WSW,257,1.0,7.0,86,0.00,,,0.00,Wunderground v.1.15,2013-06-23 08:21:00,
2013-06-23 04:26:00,67.8,63.5,30.08,West,267,1.0,7.0,86,0.00,,,0.00,Wunderground v.1.15,2013-06-23 08:26:00,
2013-06-23 04:31:00,67.8,63.5,30.08,NW,312,2.0,7.0,86,0.00,,,0.00,Wunderground v.1.15,2013-06-23 08:31:00,
2013-06-23 04:36:00,67.8,63.8,30.08,SW,219,2.0,7.0,87,0.00,,,0.00,Wunderground v.1.15,2013-06-23 08:36:00,
2013-06-23 04:41:00,67.6,63.6,30.08,SSW,210,2.0,7.0,87,0.00,,,0.00,Wunderground v.1.15,2013-06-23 08:41:00,
2013-06-23 04:46:00,67.6,63.6,30.09,WSW,251,2.0,7.0,87,0.00,,,0.00,Wunderground v.1.15,2013-06-23 08:46:00,
2013-06-23 04:51:00,67.7,63.7,30.09,SSE,166,2.0,7.0,87,0.00,,,0.00,Wunderground v.1.15,2013-06-23 08:51:00,
2013-06-23 04:57:00,67.6,63.6,30.09,SSW,198,2.0,7.0,87,0.00,,,0.00,Wunderground v.1.15,2013-06-23 08:57:00,
2013-06-23 05:02:00,67.6,63.6,30.09,SW,220,2.0,7.0,87,0.00,,,0.00,Wunderground v.1.15,2013-06-23 09:02:00,
2013-06-23 05:07:00,67.5,63.5,30.09,West,281,2.0,7.0,87,0.00,,,0.00,Wunderground v.1.15,2013-06-23 09:07:00,
2013-06-23 05:12:00,67.5,63.5,30.09,NW,304,2.0,7.0,87,0.00,,,0.00,Wunderground v.1.15,2013-06-23 09:12:00,
2013-06-23 05:17:00,67.5,63.5,30.09,NW,312,2.0,7.0,87,0.00,,,0.00,Wunderground v.1.15,2013-06-23 09:17:00,
2013-06-23 05:23:00,67.4,63.7,30.09,SSW,196,2.0,7.0,88,0.00,,,0.00,Wunderground v.1.15,2013-06-23 09:23:00,
2013-06-23 05:28:00,67.3,63.6,30.09,WNW,302,1.0,7.0,88,0.00,,,0.00,Wunderground v.1.15,2013-06-23 09:28:00,
2013-06-23 05:33:00,67.2,63.5,30.09,SW,221,2.0,7.0,88,0.00,,,0.00,Wunderground v.1.15,2013-06-23 09:33:00,
2013-06-23 05:38:00,67.2,63.5,30.09,SW,224,2.0,7.0,88,0.00,,,0.00,Wunderground v.1.15,2013-06-23 09:38:00,
2013-06-23 05:43:00,67.2,63.5,30.09,SSW,211,2.0,7.0,88,0.00,,,0.00,Wunderground v.1.15,2013-06-23 09:43:00,
2013-06-23 05:49:00,67.3,63.6,30.09,SE,124,2.0,7.0,88,0.00,,,0.00,Wunderground v.1.15,2013-06-23 09:49:00,
2013-06-23 05:54:00,67.4,63.7,30.09,WSW,237,2.0,7.0,88,0.00,,,0.00,Wunderground v.1.15,2013-06-23 09:54:00,
2013-06-23 05:59:00,67.5,63.8,30.09,WSW,250,2.0,7.0,88,0.00,,,0.00,Wunderground v.1.15,2013-06-23 09:59:00,
2013-06-23 06:04:00,67.6,63.9,30.10,West,260,1.0,7.0,88,0.00,,,0.00,Wunderground v.1.15,2013-06-23 10:04:00,
2013-06-23 06:09:00,67.7,64.0,30.10,NNW,331,1.0,7.0,88,0.00,,,0.00,Wunderground v.1.15,2013-06-23 10:09:00,
2013-06-23 06:15:00,67.7,64.0,30.10,SW,219,1.0,7.0,88,0.00,,,0.00,Wunderground v.1.15,2013-06-23 10:15:00,
2013-06-23 06:20:00,67.8,64.1,30.11,NW,306,1.0,7.0,88,0.00,,,0.00,Wunderground v.1.15,2013-06-23 10:20:00,
2013-06-23 06:25:00,68.0,64.3,30.11,WSW,246,2.0,7.0,88,0.00,,,0.00,Wunderground v.1.15,2013-06-23 10:25:00,
2013-06-23 06:30:00,68.3,64.6,30.11,NE,45,1.0,7.0,88,0.00,,,0.00,Wunderground v.1.15,2013-06-23 10:30:00,
2013-06-23 06:35:00,68.5,64.5,30.11,NNW,330,1.0,7.0,87,0.00,,,0.00,Wunderground v.1.15,2013-06-23 10:35:00,
2013-06-23 06:41:00,68.9,64.5,30.11,South,178,1.0,7.0,86,0.00,,,0.00,Wunderground v.1.15,2013-06-23 10:41:00,
2013-06-23 06:46:00,69.3,64.9,30.11,WNW,282,1.0,7.0,86,0.00,,,0.00,Wunderground v.1.15,2013-06-23 10:46:00,
2013-06-23 06:51:00,69.6,65.2,30.11,WNW,288,1.0,7.0,86,0.00,,,0.00,Wunderground v.1.15,2013-06-23 10:51:00,
2013-06-23 06:56:00,69.8,65.1,30.11,SW,235,1.0,7.0,85,0.00,,,0.00,Wunderground v.1.15,2013-06-23 10:56:00,
2013-06-23 07:01:00,70.0,65.3,30.11,SW,225,1.0,7.0,85,0.00,,,0.00,Wunderground v.1.15,2013-06-23 11:01:00,
2013-06-23 07:07:00,70.3,65.6,30.11,SSW,200,1.0,7.0,85,0.00,,,0.00,Wunderground v.1.15,2013-06-23 11:07:00,
2013-06-23 07:12:00,70.7,65.3,30.11,SSW,212,1.0,7.0,83,0.00,,,0.00,Wunderground v.1.15,2013-06-23 11:12:00,
2013-06-23 07:17:00,70.7,65.6,30.11,WSW,250,1.0,7.0,84,0.00,,,0.00,Wunderground v.1.15,2013-06-23 11:17:00,
2013-06-23 07:22:00,71.0,65.6,30.11,SSW,210,1.0,7.0,83,0.00,,,0.00,Wunderground v.1.15,2013-06-23 11:22:00,
2013-06-23 07:27:00,70.8,65.0,30.11,East,81,1.0,7.0,82,0.00,,,0.00,Wunderground v.1.15,2013-06-23 11:27:00,
2013-06-23 07:32:00,70.8,65.4,30.11,West,259,1.0,7.0,83,0.00,,,0.00,Wunderground v.1.15,2013-06-23 11:32:00,
2013-06-23 07:38:00,70.9,65.5,30.11,West,262,1.0,7.0,83,0.00,,,0.00,Wunderground v.1.15,2013-06-23 11:38:00,
2013-06-23 07:43:00,70.9,65.5,30.11,SW,224,2.0,7.0,83,0.00,,,0.00,Wunderground v.1.15,2013-06-23 11:43:00,
2013-06-23 07:48:00,71.1,65.7,30.11,SSW,210,2.0,7.0,83,0.00,,,0.00,Wunderground v.1.15,2013-06-23 11:48:00,
2013-06-23 07:53:00,71.3,65.9,30.11,SSE,150,2.0,7.0,83,0.00,,,0.00,Wunderground v.1.15,2013-06-23 11:53:00,
2013-06-23 07:58:00,71.6,66.2,30.11,SSE,160,2.0,7.0,83,0.00,,,0.00,Wunderground v.1.15,2013-06-23 11:58:00,
2013-06-23 08:03:00,71.9,65.8,30.11,WSW,240,2.0,7.0,81,0.00,,,0.00,Wunderground v.1.15,2013-06-23 12:03:00,
2013-06-23 08:08:00,72.1,66.3,30.11,WSW,249,2.0,7.0,82,0.00,,,0.00,Wunderground v.1.15,2013-06-23 12:08:00,
2013-06-23 08:14:00,72.4,66.2,30.11,WSW,255,2.0,7.0,81,0.00,,,0.00,Wunderground v.1.15,2013-06-23 12:14:00,
2013-06-23 08:19:00,72.7,66.5,30.11,West,266,3.0,7.0,81,0.00,,,0.00,Wunderground v.1.15,2013-06-23 12:19:00,
2013-06-23 08:24:00,72.9,66.4,30.10,South,190,3.0,7.0,80,0.00,,,0.00,Wunderground v.1.15,2013-06-23 12:24:00,
2013-06-23 08:29:00,73.1,66.6,30.10,SW,231,3.0,7.0,80,0.00,,,0.00,Wunderground v.1.15,2013-06-23 12:29:00,
2013-06-23 08:34:00,73.3,66.8,30.11,NW,316,3.0,7.0,80,0.00,,,0.00,Wunderground v.1.15,2013-06-23 12:34:00,
2013-06-23 08:39:00,73.5,67.3,30.11,SE,145,2.0,7.0,81,0.00,,,0.00,Wunderground v.1.15,2013-06-23 12:39:00,
2013-06-23 08:44:00,73.8,67.2,30.11,West,260,2.0,7.0,80,0.00,,,0.00,Wunderground v.1.15,2013-06-23 12:44:00,
2013-06-23 08:49:00,73.9,67.0,30.10,WSW,255,2.0,7.0,79,0.00,,,0.00,Wunderground v.1.15,2013-06-23 12:49:00,
2013-06-23 08:55:00,73.9,67.0,30.11,West,260,3.0,7.0,79,0.00,,,0.00,Wunderground v.1.15,2013-06-23 12:55:00,
2013-06-23 09:00:00,73.9,67.0,30.11,NNW,328,2.0,7.0,79,0.00,,,0.00,Wunderground v.1.15,2013-06-23 13:00:00,
2013-06-23 09:06:00,73.9,66.6,30.10,SSE,158,4.0,7.0,78,0.00,,,0.00,Wunderground v.1.15,2013-06-23 13:06:00,
2013-06-23 09:11:00,73.9,67.3,30.10,West,263,3.0,7.0,80,0.00,,,0.00,Wunderground v.1.15,2013-06-23 13:11:00,
2013-06-23 09:17:00,73.8,66.9,30.10,SW,236,2.0,7.0,79,0.00,,,0.00,Wunderground v.1.15,2013-06-23 13:17:00,
2013-06-23 09:22:00,74.0,67.8,30.10,West,280,2.0,7.0,81,0.00,,,0.00,Wunderground v.1.15,2013-06-23 13:22:00,
2013-06-23 09:27:00,74.4,68.2,30.10,SW,224,2.0,7.0,81,0.00,,,0.00,Wunderground v.1.15,2013-06-23 13:27:00,
2013-06-23 09:32:00,75.0,68.0,30.10,SW,222,2.0,7.0,79,0.00,,,0.00,Wunderground v.1.15,2013-06-23 13:32:00,
2013-06-23 09:37:00,75.5,68.2,30.09,NW,304,2.0,7.0,78,0.00,,,0.00,Wunderground v.1.15,2013-06-23 13:37:00,
2013-06-23 09:43:00,75.9,68.2,30.09,West,281,3.0,7.0,77,0.00,,,0.00,Wunderground v.1.15,2013-06-23 13:43:00,
2013-06-23 09:48:00,76.3,68.6,30.09,SW,218,3.0,8.0,77,0.00,,,0.00,Wunderground v.1.15,2013-06-23 13:48:00,
2013-06-23 09:53:00,76.7,68.6,30.09,West,266,4.0,7.0,76,0.00,,,0.00,Wunderground v.1.15,2013-06-23 13:53:00,
2013-06-23 09:59:00,77.5,69.3,30.09,SSW,203,3.0,7.0,76,0.00,,,0.00,Wunderground v.1.15,2013-06-23 13:59:00,
2013-06-23 10:04:00,77.9,68.9,30.09,South,188,3.0,7.0,74,0.00,,,0.00,Wunderground v.1.15,2013-06-23 14:04:00,
2013-06-23 10:09:00,78.5,69.1,30.09,North,1,3.0,7.0,73,0.00,,,0.00,Wunderground v.1.15,2013-06-23 14:09:00,
2013-06-23 10:14:00,79.0,69.6,30.09,NW,315,2.0,7.0,73,0.00,,,0.00,Wunderground v.1.15,2013-06-23 14:14:00,
2013-06-23 10:19:00,79.1,69.3,30.09,ENE,57,2.0,7.0,72,0.00,,,0.00,Wunderground v.1.15,2013-06-23 14:19:00,
2013-06-23 10:25:00,79.7,69.5,30.09,South,190,2.0,7.0,71,0.00,,,0.00,Wunderground v.1.15,2013-06-23 14:25:00,
2013-06-23 10:30:00,79.3,68.7,30.08,WSW,243,2.0,2.0,70,0.00,,,0.00,Wunderground v.1.15,2013-06-23 14:30:00,
2013-06-23 10:35:00,78.6,68.4,30.09,NNW,335,2.0,7.0,71,0.00,,,0.00,Wunderground v.1.15,2013-06-23 14:35:00,
2013-06-23 10:41:00,78.0,68.2,30.08,West,273,2.0,3.0,72,0.00,,,0.00,Wunderground v.1.15,2013-06-23 14:41:00,
2013-06-23 10:46:00,77.9,68.5,30.08,West,269,2.0,7.0,73,0.00,,,0.00,Wunderground v.1.15,2013-06-23 14:46:00,
2013-06-23 10:51:00,78.5,69.1,30.08,WSW,253,2.0,7.0,73,0.00,,,0.00,Wunderground v.1.15,2013-06-23 14:51:00,
2013-06-23 10:56:00,79.7,69.5,30.08,West,263,2.0,7.0,71,0.00,,,0.00,Wunderground v.1.15,2013-06-23 14:56:00,
2013-06-23 11:02:00,80.5,69.4,30.08,NW,315,2.0,7.0,69,0.00,,,0.00,Wunderground v.1.15,2013-06-23 15:02:00,
2013-06-23 11:07:00,80.8,69.2,30.08,NW,317,2.0,7.0,68,0.00,,,0.00,Wunderground v.1.15,2013-06-23 15:07:00,
2013-06-23 11:12:00,80.4,69.3,30.08,WSW,257,3.0,7.0,69,0.00,,,0.00,Wunderground v.1.15,2013-06-23 15:12:00,
2013-06-23 11:17:00,80.7,68.7,30.08,SW,228,4.0,7.0,67,0.00,,,0.00,Wunderground v.1.15,2013-06-23 15:17:00,
2013-06-23 11:22:00,81.5,70.8,30.08,WNW,292,3.0,7.0,70,0.00,,,0.00,Wunderground v.1.15,2013-06-23 15:22:00,
2013-06-23 11:27:00,81.9,70.3,30.08,WSW,246,3.0,7.0,68,0.00,,,0.00,Wunderground v.1.15,2013-06-23 15:27:00,
2013-06-23 11:33:00,82.2,68.3,30.07,NW,309,3.0,10.0,63,0.00,,,0.00,Wunderground v.1.15,2013-06-23 15:33:00,
2013-06-23 11:39:00,81.7,69.2,30.07,NW,315,4.0,10.0,66,0.00,,,0.00,Wunderground v.1.15,2013-06-23 15:39:00,
2013-06-23 11:44:00,81.4,69.4,30.07,WNW,295,4.0,7.0,67,0.00,,,0.00,Wunderground v.1.15,2013-06-23 15:44:00,
2013-06-23 11:49:00,81.7,68.3,30.07,ENE,65,4.0,7.0,64,0.00,,,0.00,Wunderground v.1.15,2013-06-23 15:49:00,
2013-06-23 11:54:00,81.9,68.5,30.07,WSW,243,3.0,8.0,64,0.00,,,0.00,Wunderground v.1.15,2013-06-23 15:54:00,
2013-06-23 11:59:00,82.2,69.3,30.07,SSW,205,4.0,9.0,65,0.00,,,0.00,Wunderground v.1.15,2013-06-23 15:59:00,
2013-06-23 12:05:00,82.2,67.9,30.07,SSE,162,4.0,9.0,62,0.00,,,0.00,Wunderground v.1.15,2013-06-23 16:05:00,
2013-06-23 12:10:00,81.6,68.2,30.06,WSW,249,4.0,4.0,64,0.00,,,0.00,Wunderground v.1.15,2013-06-23 16:10:00,
2013-06-23 12:15:00,82.3,70.2,30.06,WSW,243,3.0,7.0,67,0.00,,,0.00,Wunderground v.1.15,2013-06-23 16:15:00,
2013-06-23 12:20:00,82.9,68.5,30.06,WNW,295,3.0,7.0,62,0.00,,,0.00,Wunderground v.1.15,2013-06-23 16:20:00,
2013-06-23 12:25:00,82.9,67.6,30.06,South,190,3.0,7.0,60,0.00,,,0.00,Wunderground v.1.15,2013-06-23 16:25:00,
2013-06-23 12:30:00,83.4,67.6,30.06,NW,311,4.0,7.0,59,0.00,,,0.00,Wunderground v.1.15,2013-06-23 16:30:00,
2013-06-23 12:35:00,83.7,68.3,30.06,SW,226,3.0,7.0,60,0.00,,,0.00,Wunderground v.1.15,2013-06-23 16:35:00,
2013-06-23 12:41:00,83.7,66.8,30.06,WNW,288,4.0,8.0,57,0.00,,,0.00,Wunderground v.1.15,2013-06-23 16:41:00,
2013-06-23 12:46:00,83.7,67.8,30.05,South,181,4.0,11.0,59,0.00,,,0.00,Wunderground v.1.15,2013-06-23 16:46:00,
2013-06-23 12:51:00,83.5,67.7,30.05,WNW,288,4.0,9.0,59,0.00,,,0.00,Wunderground v.1.15,2013-06-23 16:51:00,
2013-06-23 12:56:00,83.4,67.6,30.05,North,353,5.0,9.0,59,0.00,,,0.00,Wunderground v.1.15,2013-06-23 16:56:00,
2013-06-23 12:57:00,83.4,68.1,30.05,SW,224,4.0,9.0,60,0.00,,,0.00,Wunderground v.1.15,2013-06-23 16:57:00,
2013-06-23 12:58:00,83.2,67.4,30.05,WNW,291,4.0,9.0,59,0.00,,,0.00,Wunderground v.1.15,2013-06-23 16:58:00,
2013-06-23 13:00:00,82.9,68.1,30.05,West,274,4.0,4.0,61,0.00,,,0.00,Wunderground v.1.15,2013-06-23 17:00:00,
2013-06-23 13:03:00,82.6,67.3,30.05,NW,312,3.0,7.0,60,0.00,,,0.00,Wunderground v.1.15,2013-06-23 17:03:00,
2013-06-23 13:04:00,82.6,67.8,30.05,SSE,168,3.0,7.0,61,0.00,,,0.00,Wunderground v.1.15,2013-06-23 17:04:00,
2013-06-23 13:10:00,83.1,66.3,30.05,NW,321,3.0,7.0,57,0.00,,,0.00,Wunderground v.1.15,2013-06-23 17:10:00,
2013-06-23 13:15:00,83.7,68.8,30.05,SE,124,3.0,7.0,61,0.00,,,0.00,Wunderground v.1.15,2013-06-23 17:15:00,
2013-06-23 13:21:00,84.6,69.2,30.04,WNW,300,3.0,7.0,60,0.00,,,0.00,Wunderground v.1.15,2013-06-23 17:21:00,
2013-06-23 13:26:00,84.9,68.5,30.04,WSW,255,2.0,7.0,58,0.00,,,0.00,Wunderground v.1.15,2013-06-23 17:26:00,
2013-06-23 13:31:00,85.1,67.6,30.04,WSW,246,3.0,7.0,56,0.00,,,0.00,Wunderground v.1.15,2013-06-23 17:31:00,
2013-06-23 13:36:00,85.1,66.6,30.04,WSW,243,3.0,7.0,54,0.00,,,0.00,Wunderground v.1.15,2013-06-23 17:36:00,
2013-06-23 13:41:00,85.2,66.1,30.04,SSW,203,3.0,7.0,53,0.00,,,0.00,Wunderground v.1.15,2013-06-23 17:41:00,
2013-06-23 13:47:00,85.1,66.0,30.03,South,187,3.0,7.0,53,0.00,,,0.00,Wunderground v.1.15,2013-06-23 17:47:00,
2013-06-23 13:52:00,85.2,67.7,30.03,NW,309,2.0,7.0,56,0.00,,,0.00,Wunderground v.1.15,2013-06-23 17:52:00,
2013-06-23 13:57:00,84.8,66.3,30.03,NW,309,3.0,7.0,54,0.00,,,0.00,Wunderground v.1.15,2013-06-23 17:57:00,
2013-06-23 14:02:00,84.7,66.2,30.03,WSW,239,3.0,7.0,54,0.00,,,0.00,Wunderground v.1.15,2013-06-23 18:02:00,
2013-06-23 14:07:00,84.8,68.4,30.02,SSW,200,3.0,7.0,58,0.00,,,0.00,Wunderground v.1.15,2013-06-23 18:07:00,
2013-06-23 14:13:00,85.2,67.7,30.02,SSW,210,2.0,7.0,56,0.00,,,0.00,Wunderground v.1.15,2013-06-23 18:13:00,
2013-06-23 14:18:00,85.0,66.0,30.02,WSW,255,3.0,7.0,53,0.00,,,0.00,Wunderground v.1.15,2013-06-23 18:18:00,
2013-06-23 14:23:00,85.4,67.9,30.02,SSW,203,3.0,7.0,56,0.00,,,0.00,Wunderground v.1.15,2013-06-23 18:23:00,
2013-06-23 14:28:00,85.4,67.9,30.02,SSE,162,2.0,7.0,56,0.00,,,0.00,Wunderground v.1.15,2013-06-23 18:28:00,
2013-06-23 14:33:00,85.6,68.6,30.02,SW,218,2.0,7.0,57,0.00,,,0.00,Wunderground v.1.15,2013-06-23 18:33:00,
2013-06-23 14:39:00,85.8,67.2,30.02,SSW,194,3.0,7.0,54,0.00,,,0.00,Wunderground v.1.15,2013-06-23 18:39:00,
2013-06-23 14:44:00,85.6,66.5,30.02,SW,226,3.0,9.0,53,0.00,,,0.00,Wunderground v.1.15,2013-06-23 18:44:00,
2013-06-23 14:49:00,86.5,68.4,30.01,SE,129,2.0,9.0,55,0.00,,,0.00,Wunderground v.1.15,2013-06-23 18:49:00,
2013-06-23 14:54:00,86.9,67.7,30.01,West,263,2.0,7.0,53,0.00,,,0.00,Wunderground v.1.15,2013-06-23 18:54:00,
2013-06-23 14:59:00,86.6,68.0,30.01,SSW,205,3.0,7.0,54,0.00,,,0.00,Wunderground v.1.15,2013-06-23 18:59:00,
2013-06-23 15:05:00,86.5,68.9,30.01,SE,132,3.0,7.0,56,0.00,,,0.00,Wunderground v.1.15,2013-06-23 19:05:00,
2013-06-23 15:10:00,86.3,67.7,30.01,SSW,203,3.0,7.0,54,0.00,,,0.00,Wunderground v.1.15,2013-06-23 19:10:00,
2013-06-23 15:15:00,86.1,65.9,30.01,SW,217,3.0,7.0,51,0.00,,,0.00,Wunderground v.1.15,2013-06-23 19:15:00,
2013-06-23 15:20:00,86.0,68.0,30.01,SSW,213,3.0,3.0,55,0.00,,,0.00,Wunderground v.1.15,2013-06-23 19:20:00,
2013-06-23 15:25:00,86.1,66.4,30.00,SW,233,3.0,7.0,52,0.00,,,0.00,Wunderground v.1.15,2013-06-23 19:25:00,
2013-06-23 15:31:00,86.6,64.0,30.00,WSW,246,3.0,7.0,47,0.00,,,0.00,Wunderground v.1.15,2013-06-23 19:31:00,
2013-06-23 15:36:00,86.5,65.1,30.00,WNW,286,3.0,7.0,49,0.00,,,0.00,Wunderground v.1.15,2013-06-23 19:36:00,
2013-06-23 15:41:00,86.5,62.0,30.00,WSW,258,3.0,4.0,44,0.00,,,0.00,Wunderground v.1.15,2013-06-23 19:41:00,
2013-06-23 15:46:00,86.6,61.4,30.00,NW,308,3.0,7.0,43,0.00,,,0.00,Wunderground v.1.15,2013-06-23 19:46:00,
2013-06-23 15:51:00,86.5,63.3,30.00,East,96,3.0,7.0,46,0.00,,,0.00,Wunderground v.1.15,2013-06-23 19:51:00,
2013-06-23 15:57:00,86.5,66.2,30.00,East,91,3.0,8.0,51,0.00,,,0.00,Wunderground v.1.15,2013-06-23 19:57:00,
2013-06-23 16:02:00,86.9,63.0,29.99,ESE,113,3.0,7.0,45,0.00,,,0.00,Wunderground v.1.15,2013-06-23 20:02:00,
2013-06-23 16:07:00,86.6,65.2,29.99,SSW,203,3.0,11.0,49,0.00,,,0.00,Wunderground v.1.15,2013-06-23 20:07:00,
2013-06-23 16:12:00,86.4,64.4,29.99,SW,229,3.0,7.0,48,0.00,,,0.00,Wunderground v.1.15,2013-06-23 20:12:00,
2013-06-23 16:17:00,86.5,64.5,29.99,SSW,195,3.0,7.0,48,0.00,,,0.00,Wunderground v.1.15,2013-06-23 20:17:00,
2013-06-23 16:22:00,86.4,63.8,29.99,WSW,254,3.0,7.0,47,0.00,,,0.00,Wunderground v.1.15,2013-06-23 20:22:00,
2013-06-23 16:27:00,86.3,64.9,29.99,SSW,201,3.0,7.0,49,0.00,,,0.00,Wunderground v.1.15,2013-06-23 20:27:00,
2013-06-23 16:32:00,86.3,63.7,29.99,WNW,297,3.0,7.0,47,0.00,,,0.00,Wunderground v.1.15,2013-06-23 20:32:00,
2013-06-23 16:37:00,86.1,64.1,29.99,SSE,154,3.0,7.0,48,0.00,,,0.00,Wunderground v.1.15,2013-06-23 20:37:00,
2013-06-23 16:42:00,86.2,63.6,29.99,WNW,288,2.0,7.0,47,0.00,,,0.00,Wunderground v.1.15,2013-06-23 20:42:00,
2013-06-23 16:48:00,86.3,65.5,29.99,SSW,205,2.0,7.0,50,0.00,,,0.00,Wunderground v.1.15,2013-06-23 20:48:00,
2013-06-23 16:53:00,86.1,64.1,30.00,West,268,2.0,7.0,48,0.00,,,0.00,Wunderground v.1.15,2013-06-23 20:53:00,
2013-06-23 16:58:00,86.0,64.0,30.00,NW,314,3.0,7.0,48,0.00,,,0.00,Wunderground v.1.15,2013-06-23 20:58:00,
2013-06-23 17:03:00,86.1,62.3,30.00,SW,233,3.0,7.0,45,0.00,,,0.00,Wunderground v.1.15,2013-06-23 21:03:00,
2013-06-23 17:08:00,86.4,63.8,30.00,West,275,2.0,7.0,47,0.00,,,0.00,Wunderground v.1.15,2013-06-23 21:08:00,
2013-06-23 17:13:00,86.2,63.0,30.00,SE,125,3.0,7.0,46,0.00,,,0.00,Wunderground v.1.15,2013-06-23 21:13:00,
2013-06-23 17:19:00,86.2,63.0,30.00,WSW,241,2.0,7.0,46,0.00,,,0.00,Wunderground v.1.15,2013-06-23 21:19:00,
2013-06-23 17:24:00,86.0,63.4,30.00,NW,313,3.0,7.0,47,0.00,,,0.00,Wunderground v.1.15,2013-06-23 21:24:00,
2013-06-23 17:29:00,85.7,62.5,29.99,WSW,254,3.0,7.0,46,0.00,,,0.00,Wunderground v.1.15,2013-06-23 21:29:00,
2013-06-23 17:34:00,85.7,63.1,29.99,WSW,254,3.0,7.0,47,0.00,,,0.00,Wunderground v.1.15,2013-06-23 21:34:00,
2013-06-23 17:39:00,85.4,62.3,29.99,WNW,284,3.0,7.0,46,0.00,,,0.00,Wunderground v.1.15,2013-06-23 21:39:00,
2013-06-23 17:45:00,85.3,63.4,29.98,WSW,250,3.0,7.0,48,0.00,,,0.00,Wunderground v.1.15,2013-06-23 21:45:00,
2013-06-23 17:50:00,85.1,63.2,29.98,NW,321,3.0,3.0,48,0.00,,,0.00,Wunderground v.1.15,2013-06-23 21:50:00,
2013-06-23 17:55:00,84.6,63.3,29.98,WNW,294,3.0,7.0,49,0.00,,,0.00,Wunderground v.1.15,2013-06-23 21:55:00,
2013-06-23 18:00:00,84.5,62.7,29.98,WNW,300,3.0,7.0,48,0.00,,,0.00,Wunderground v.1.15,2013-06-23 22:00:00,
2013-06-23 18:05:00,84.7,64.0,29.98,West,273,3.0,7.0,50,0.00,,,0.00,Wunderground v.1.15,2013-06-23 22:05:00,
2013-06-23 18:11:00,84.8,64.1,29.98,NNE,18,2.0,7.0,50,0.00,,,0.00,Wunderground v.1.15,2013-06-23 22:11:00,
2013-06-23 18:16:00,84.7,65.1,29.98,WNW,285,2.0,7.0,52,0.00,,,0.00,Wunderground v.1.15,2013-06-23 22:16:00,
2013-06-23 18:21:00,84.4,64.3,29.98,SSW,203,3.0,7.0,51,0.00,,,0.00,Wunderground v.1.15,2013-06-23 22:21:00,
2013-06-23 18:26:00,84.3,63.6,29.98,SSW,193,3.0,7.0,50,0.00,,,0.00,Wunderground v.1.15,2013-06-23 22:26:00,
2013-06-23 18:31:00,84.0,63.9,29.98,WSW,252,3.0,7.0,51,0.00,,,0.00,Wunderground v.1.15,2013-06-23 22:31:00,
2013-06-23 18:37:00,83.8,64.3,29.98,SSW,210,2.0,7.0,52,0.00,,,0.00,Wunderground v.1.15,2013-06-23 22:37:00,
2013-06-23 18:42:00,83.5,64.6,29.98,West,262,2.0,7.0,53,0.00,,,0.00,Wunderground v.1.15,2013-06-23 22:42:00,
2013-06-23 18:47:00,83.4,63.9,29.98,WNW,288,2.0,7.0,52,0.00,,,0.00,Wunderground v.1.15,2013-06-23 22:47:00,
2013-06-23 18:52:00,82.6,64.3,29.98,SSW,195,3.0,7.0,54,0.00,,,0.00,Wunderground v.1.15,2013-06-23 22:52:00,
2013-06-23 18:57:00,82.4,64.6,29.98,WSW,250,3.0,7.0,55,0.00,,,0.00,Wunderground v.1.15,2013-06-23 22:57:00,
2013-06-23 19:03:00,82.2,64.4,29.99,NNW,331,2.0,7.0,55,0.00,,,0.00,Wunderground v.1.15,2013-06-23 23:03:00,
2013-06-23 19:08:00,81.6,64.4,29.99,WNW,298,2.0,7.0,56,0.00,,,0.00,Wunderground v.1.15,2013-06-23 23:08:00,
2013-06-23 19:13:00,81.4,64.7,29.99,SSW,207,2.0,7.0,57,0.00,,,0.00,Wunderground v.1.15,2013-06-23 23:13:00,
2013-06-23 19:18:00,81.2,64.0,29.99,West,260,1.0,7.0,56,0.00,,,0.00,Wunderground v.1.15,2013-06-23 23:18:00,
2013-06-23 19:23:00,80.6,64.5,29.99,West,262,1.0,7.0,58,0.00,,,0.00,Wunderground v.1.15,2013-06-23 23:23:00,
2013-06-23 19:29:00,80.1,64.5,29.98,SW,219,1.0,7.0,59,0.00,,,0.00,Wunderground v.1.15,2013-06-23 23:29:00,
2013-06-23 19:34:00,79.7,64.6,29.98,WSW,257,1.0,7.0,60,0.00,,,0.00,Wunderground v.1.15,2013-06-23 23:34:00,
2013-06-23 19:39:00,79.2,64.1,29.98,SW,217,1.0,7.0,60,0.00,,,0.00,Wunderground v.1.15,2013-06-23 23:39:00,
2013-06-23 19:44:00,79.1,64.5,29.98,SSW,194,1.0,7.0,61,0.00,,,0.00,Wunderground v.1.15,2013-06-23 23:44:00,
2013-06-23 19:49:00,79.0,64.4,29.98,WSW,240,1.0,7.0,61,0.00,,,0.00,Wunderground v.1.15,2013-06-23 23:49:00,
2013-06-23 19:55:00,78.7,64.1,29.98,WNW,283,1.0,7.0,61,0.00,,,0.00,Wunderground v.1.15,2013-06-23 23:55:00,
2013-06-23 20:00:00,78.4,64.8,29.98,NW,311,1.0,7.0,63,0.00,,,0.00,Wunderground v.1.15,2013-06-24 00:00:00,
2013-06-23 20:05:00,77.9,64.7,29.98,WNW,299,1.0,7.0,64,0.00,,,0.00,Wunderground v.1.15,2013-06-24 00:05:00,
2013-06-23 20:10:00,77.4,65.1,29.99,WNW,300,1.0,1.0,66,0.00,,,0.00,Wunderground v.1.15,2013-06-24 00:10:00,
2013-06-23 20:15:00,76.7,65.3,29.99,WNW,300,0.0,7.0,68,0.00,,,0.00,Wunderground v.1.15,2013-06-24 00:15:00,
2013-06-23 20:21:00,76.1,65.2,29.99,WNW,300,0.0,7.0,69,0.00,,,0.00,Wunderground v.1.15,2013-06-24 00:21:00,
2013-06-23 20:26:00,75.7,65.2,29.99,WNW,298,0.0,7.0,70,0.00,,,0.00,Wunderground v.1.15,2013-06-24 00:26:00,
2013-06-23 20:31:00,75.2,65.6,29.99,SW,235,0.0,7.0,72,0.00,,,0.00,Wunderground v.1.15,2013-06-24 00:31:00,
2013-06-23 20:36:00,74.6,65.4,29.99,SW,235,0.0,7.0,73,0.00,,,0.00,Wunderground v.1.15,2013-06-24 00:36:00,
2013-06-23 20:41:00,74.1,65.3,29.99,SW,234,0.0,7.0,74,0.00,,,0.00,Wunderground v.1.15,2013-06-24 00:41:00,
2013-06-23 20:47:00,73.6,65.2,30.00,SW,235,0.0,7.0,75,0.00,,,0.00,Wunderground v.1.15,2013-06-24 00:47:00,
2013-06-23 20:52:00,73.3,65.7,30.00,SW,235,0.0,7.0,77,0.00,,,0.00,Wunderground v.1.15,2013-06-24 00:52:00,
2013-06-23 20:57:00,73.2,65.6,30.00,SW,235,0.0,7.0,77,0.00,,,0.00,Wunderground v.1.15,2013-06-24 00:57:00,
2013-06-23 21:02:00,72.9,65.6,30.00,SW,236,0.0,7.0,78,0.00,,,0.00,Wunderground v.1.15,2013-06-24 01:02:00,
2013-06-23 21:07:00,72.5,65.2,30.00,SW,236,0.0,7.0,78,0.00,,,0.00,Wunderground v.1.15,2013-06-24 01:07:00,
2013-06-23 21:12:00,72.2,65.7,30.00,SW,236,0.0,7.0,80,0.00,,,0.00,Wunderground v.1.15,2013-06-24 01:12:00,
2013-06-23 21:17:00,72.0,65.5,30.00,WSW,238,0.0,7.0,80,0.00,,,0.00,Wunderground v.1.15,2013-06-24 01:17:00,
2013-06-23 21:22:00,71.8,65.7,30.00,WSW,238,0.0,7.0,81,0.00,,,0.00,Wunderground v.1.15,2013-06-24 01:22:00,
2013-06-23 21:28:00,71.4,65.6,30.01,WSW,238,0.0,7.0,82,0.00,,,0.00,Wunderground v.1.15,2013-06-24 01:28:00,
2013-06-23 21:33:00,71.2,65.8,30.01,SW,236,0.0,7.0,83,0.00,,,0.00,Wunderground v.1.15,2013-06-24 01:33:00,
2013-06-23 21:38:00,71.0,65.9,30.01,WSW,238,0.0,7.0,84,0.00,,,0.00,Wunderground v.1.15,2013-06-24 01:38:00,
2013-06-23 21:43:00,70.8,65.7,30.01,WSW,238,0.0,7.0,84,0.00,,,0.00,Wunderground v.1.15,2013-06-24 01:43:00,
2013-06-23 21:48:00,70.5,65.8,30.01,WSW,238,0.0,7.0,85,0.00,,,0.00,Wunderground v.1.15,2013-06-24 01:48:00,
2013-06-23 21:53:00,70.3,65.6,30.01,SW,235,0.0,7.0,85,0.00,,,0.00,Wunderground v.1.15,2013-06-24 01:53:00,
2013-06-23 21:58:00,70.3,65.9,30.01,SW,235,0.0,7.0,86,0.00,,,0.00,Wunderground v.1.15,2013-06-24 01:58:00,
2013-06-23 22:03:00,70.2,65.8,30.01,SW,234,0.0,7.0,86,0.00,,,0.00,Wunderground v.1.15,2013-06-24 02:03:00,
2013-06-23 22:09:00,69.9,65.5,30.02,SW,234,0.0,7.0,86,0.00,,,0.00,Wunderground v.1.15,2013-06-24 02:09:00,
2013-06-23 22:14:00,69.5,65.5,30.01,SW,235,0.0,7.0,87,0.00,,,0.00,Wunderground v.1.15,2013-06-24 02:14:00,
2013-06-23 22:19:00,69.1,65.1,30.02,SW,235,0.0,7.0,87,0.00,,,0.00,Wunderground v.1.15,2013-06-24 02:19:00,
2013-06-23 22:24:00,68.7,65.0,30.02,SW,235,0.0,7.0,88,0.00,,,0.00,Wunderground v.1.15,2013-06-24 02:24:00,
2013-06-23 22:29:00,68.4,65.0,30.02,NNW,334,0.0,7.0,89,0.00,,,0.00,Wunderground v.1.15,2013-06-24 02:29:00,
2013-06-23 22:35:00,68.1,64.7,30.02,NNW,335,0.0,7.0,89,0.00,,,0.00,Wunderground v.1.15,2013-06-24 02:35:00,
2013-06-23 22:40:00,68.0,65.0,30.02,NNW,334,0.0,7.0,90,0.00,,,0.00,Wunderground v.1.15,2013-06-24 02:40:00,
2013-06-23 22:45:00,67.8,64.8,30.01,NNW,335,0.0,7.0,90,0.00,,,0.00,Wunderground v.1.15,2013-06-24 02:45:00,
2013-06-23 22:50:00,67.7,64.7,30.02,NNW,342,0.0,7.0,90,0.00,,,0.00,Wunderground v.1.15,2013-06-24 02:50:00,
2013-06-23 22:55:00,67.8,65.1,30.02,WNW,293,0.0,7.0,91,0.00,,,0.00,Wunderground v.1.15,2013-06-24 02:55:00,
2013-06-23 23:01:00,67.5,64.8,30.01,WNW,293,0.0,7.0,91,0.00,,,0.00,Wunderground v.1.15,2013-06-24 03:01:00,
2013-06-23 23:06:00,67.3,64.9,30.01,WNW,293,0.0,7.0,92,0.00,,,0.00,Wunderground v.1.15,2013-06-24 03:06:00,
2013-06-23 23:11:00,67.1,64.7,30.02,WNW,293,0.0,7.0,92,0.00,,,0.00,Wunderground v.1.15,2013-06-24 03:11:00,
2013-06-23 23:16:00,67.0,64.6,30.01,WNW,293,0.0,7.0,92,0.00,,,0.00,Wunderground v.1.15,2013-06-24 03:16:00,
2013-06-23 23:21:00,67.0,64.9,30.01,WNW,293,0.0,7.0,93,0.00,,,0.00,Wunderground v.1.15,2013-06-24 03:21:00,
2013-06-23 23:27:00,66.9,64.8,30.02,WNW,293,0.0,7.0,93,0.00,,,0.00,Wunderground v.1.15,2013-06-24 03:27:00,
2013-06-23 23:32:00,66.8,64.4,30.01,WNW,293,0.0,7.0,92,0.00,,,0.00,Wunderground v.1.15,2013-06-24 03:32:00,
2013-06-23 23:37:00,66.6,64.2,30.02,WNW,293,0.0,7.0,92,0.00,,,0.00,Wunderground v.1.15,2013-06-24 03:37:00,
2013-06-23 23:42:00,66.6,64.2,30.02,WNW,293,0.0,7.0,92,0.00,,,0.00,Wunderground v.1.15,2013-06-24 03:42:00,
2013-06-23 23:47:00,66.5,64.1,30.02,WNW,293,0.0,7.0,92,0.00,,,0.00,Wunderground v.1.15,2013-06-24 03:47:00,
2013-06-23 23:53:00,66.5,64.1,30.01,NNW,328,0.0,7.0,92,0.00,,,0.00,Wunderground v.1.15,2013-06-24 03:53:00,
2013-06-23 23:58:00,66.7,64.3,30.02,NNW,327,0.0,7.0,92,0.00,,,0.00,Wunderground v.1.15,2013-06-24 03:58:00,